| time (UTC) | temp C | wind direction | speed KPH | gust KPH | rain 1hr cm | rain 24hr cm | rain mn cm | humidity % | barometer mb |
| 20260506180756 | 11 | 180 | 3.2 | 9.7 | 0.00 | 0.00 | 0.00 | 86 | 1014.2 |
| 20260506180256 | 11 | 157 | 4.8 | 12.9 | 0.00 | 0.00 | 0.00 | 85 | 1014.1 |
| 20260506175756 | 11 | 180 | 4.8 | 9.7 | 0.00 | 0.00 | 0.00 | 85 | 1014.1 |
| 20260506175256 | 11 | 180 | 3.2 | 9.7 | 0.00 | 0.00 | 0.00 | 84 | 1014.0 |
| 20260506174756 | 11 | 180 | 3.2 | 9.7 | 0.00 | 0.00 | 0.00 | 84 | 1013.9 |
| 20260506174256 | 12 | 157 | 3.2 | 9.7 | 0.00 | 0.00 | 0.00 | 84 | 1013.9 |
| 20260506173756 | 12 | 157 | 6.4 | 11.3 | 0.00 | 0.00 | 0.00 | 83 | 1013.7 |
| 20260506173256 | 12 | 157 | 9.7 | 12.9 | 0.00 | 0.00 | 0.00 | 83 | 1013.7 |
| 20260506172756 | 12 | 157 | 4.8 | 12.9 | 0.00 | 0.00 | 0.00 | 82 | 1013.7 |
| 20260506172256 | 12 | 157 | 9.7 | 11.3 | 0.00 | 0.00 | 0.00 | 82 | 1013.8 |
| 20260506171756 | 12 | 157 | 6.4 | 8.0 | 0.00 | 0.00 | 0.00 | 82 | 1013.8 |
| 20260506171256 | 12 | 157 | 3.2 | 9.7 | 0.00 | 0.00 | 0.00 | 82 | 1013.9 |
| 20260506170756 | 12 | 157 | 3.2 | 9.7 | 0.00 | 0.00 | 0.00 | 81 | 1013.8 |
| 20260506170256 | 12 | 135 | 4.8 | 9.7 | 0.00 | 0.00 | 0.00 | 81 | 1013.9 |
| 20260506165756 | 12 | 135 | 4.8 | 6.4 | 0.00 | 0.00 | 0.00 | 79 | 1013.8 |
| 20260506165256 | 13 | 157 | 6.4 | 9.7 | 0.00 | 0.00 | 0.00 | 79 | 1013.7 |
| 20260506164756 | 13 | 157 | 4.8 | 12.9 | 0.00 | 0.00 | 0.00 | 78 | 1013.8 |
| 20260506164256 | 13 | 157 | 8.0 | 9.7 | 0.00 | 0.00 | 0.00 | 78 | 1013.8 |
| 20260506163756 | 13 | 180 | 4.8 | 12.9 | 0.00 | 0.00 | 0.00 | 77 | 1013.7 |
| 20260506163256 | 14 | 135 | 6.4 | 8.0 | 0.00 | 0.00 | 0.00 | 76 | 1013.7 |
| 20260506162756 | 15 | 157 | 4.8 | 9.7 | 0.00 | 0.00 | 0.00 | 76 | 1013.7 |
| 20260506162256 | 15 | 157 | 4.8 | 8.0 | 0.00 | 0.00 | 0.00 | 75 | 1013.7 |
| 20260506161756 | 15 | 180 | 4.8 | 9.7 | 0.00 | 0.00 | 0.00 | 75 | 1013.7 |
| 20260506161256 | 15 | 157 | 4.8 | 11.3 | 0.00 | 0.00 | 0.00 | 74 | 1013.7 |
| 20260506160756 | 15 | 157 | 11.3 | 11.3 | 0.00 | 0.00 | 0.00 | 74 | 1013.7 |
| 20260506160256 | 15 | 180 | 3.2 | 14.5 | 0.00 | 0.00 | 0.00 | 73 | 1013.7 |
| 20260506155756 | 15 | 180 | 9.7 | 11.3 | 0.00 | 0.00 | 0.00 | 73 | 1013.7 |
| 20260506155256 | 15 | 157 | 6.4 | 12.9 | 0.00 | 0.00 | 0.00 | 72 | 1013.7 |
| 20260506154756 | 15 | 157 | 4.8 | 12.9 | 0.00 | 0.00 | 0.00 | 72 | 1013.7 |
| 20260506154256 | 15 | 157 | 6.4 | 12.9 | 0.00 | 0.00 | 0.00 | 71 | 1013.8 |
| 20260506153756 | 15 | 157 | 6.4 | 9.7 | 0.00 | 0.00 | 0.00 | 72 | 1013.8 |
| 20260506153256 | 15 | 135 | 9.7 | 11.3 | 0.00 | 0.00 | 0.00 | 72 | 1013.7 |
| 20260506152756 | 16 | 157 | 4.8 | 12.9 | 0.00 | 0.00 | 0.00 | 71 | 1013.7 |
| 20260506152256 | 16 | 135 | 4.8 | 12.9 | 0.00 | 0.00 | 0.00 | 71 | 1013.8 |
| 20260506151756 | 16 | 180 | 4.8 | 14.5 | 0.00 | 0.00 | 0.00 | 72 | 1013.9 |
| 20260506151256 | 16 | 157 | 6.4 | 14.5 | 0.00 | 0.00 | 0.00 | 71 | 1013.9 |
| 20260506150756 | 16 | 112 | 9.7 | 12.9 | 0.00 | 0.00 | 0.00 | 71 | 1013.9 |
| 20260506150303 | 16 | 135 | 8.0 | 14.5 | 0.00 | 0.00 | 0.00 | 71 | 1013.9 |
| 20260506145756 | 16 | 157 | 14.5 | 14.5 | 0.00 | 0.00 | 0.00 | 71 | 1014.0 |
| 20260506145256 | 16 | 157 | 12.9 | 17.7 | 0.00 | 0.00 | 0.00 | 69 | 1013.9 |
| 20260506144756 | 16 | 157 | 8.0 | 16.1 | 0.00 | 0.00 | 0.00 | 69 | 1013.9 |
| 20260506144256 | 16 | 180 | 14.5 | 16.1 | 0.00 | 0.00 | 0.00 | 68 | 1014.0 |
| 20260506143757 | 16 | 157 | 11.3 | 17.7 | 0.00 | 0.00 | 0.00 | 68 | 1013.9 |
| 20260506143257 | 16 | 180 | 8.0 | 16.1 | 0.00 | 0.00 | 0.00 | 68 | 1013.9 |
| 20260506142756 | 16 | 157 | 8.0 | 17.7 | 0.00 | 0.00 | 0.00 | 67 | 1013.9 |
| 20260506142257 | 16 | 157 | 8.0 | 12.9 | 0.00 | 0.00 | 0.00 | 68 | 1013.9 |
| 20260506141756 | 16 | 135 | 9.7 | 17.7 | 0.00 | 0.00 | 0.00 | 69 | 1013.9 |
| 20260506141257 | 17 | 135 | 8.0 | 16.1 | 0.00 | 0.00 | 0.00 | 69 | 1014.0 |
| 20260506140757 | 17 | 157 | 11.3 | 16.1 | 0.00 | 0.00 | 0.00 | 68 | 1014.1 |
| 20260506140257 | 17 | 135 | 12.9 | 16.1 | 0.00 | 0.00 | 0.00 | 68 | 1014.0 |
| 20260506135757 | 17 | 157 | 8.0 | 17.7 | 0.00 | 0.00 | 0.00 | 67 | 1014.0 |
| 20260506135257 | 17 | 157 | 12.9 | 17.7 | 0.00 | 0.00 | 0.00 | 67 | 1014.0 |
| 20260506134757 | 17 | 157 | 8.0 | 17.7 | 0.00 | 0.00 | 0.00 | 67 | 1014.1 |
| 20260506134257 | 17 | 135 | 11.3 | 17.7 | 0.00 | 0.00 | 0.00 | 66 | 1014.1 |
| 20260506133757 | 17 | 180 | 9.7 | 19.3 | 0.00 | 0.00 | 0.00 | 67 | 1014.1 |
| 20260506133257 | 17 | 157 | 12.9 | 17.7 | 0.00 | 0.00 | 0.00 | 67 | 1014.1 |
| 20260506132757 | 17 | 157 | 11.3 | 17.7 | 0.00 | 0.00 | 0.00 | 65 | 1014.0 |
| 20260506132257 | 17 | 135 | 12.9 | 19.3 | 0.00 | 0.00 | 0.00 | 65 | 1014.1 |
| 20260506131757 | 17 | 157 | 11.3 | 16.1 | 0.00 | 0.00 | 0.00 | 64 | 1014.1 |
| 20260506131257 | 18 | 157 | 12.9 | 19.3 | 0.00 | 0.00 | 0.00 | 62 | 1014.0 |
| 20260506130757 | 18 | 157 | 6.4 | 12.9 | 0.00 | 0.00 | 0.00 | 63 | 1014.1 |
| 20260506130257 | 18 | 157 | 6.4 | 19.3 | 0.00 | 0.00 | 0.00 | 63 | 1014.1 |
| 20260506125757 | 18 | 157 | 14.5 | 14.5 | 0.00 | 0.00 | 0.00 | 61 | 1014.1 |
| 20260506125257 | 18 | 135 | 6.4 | 16.1 | 0.00 | 0.00 | 0.00 | 61 | 1014.2 |
| 20260506124757 | 18 | 157 | 6.4 | 22.5 | 0.00 | 0.00 | 0.00 | 59 | 1014.2 |
| 20260506124257 | 18 | 180 | 14.5 | 16.1 | 0.00 | 0.00 | 0.00 | 60 | 1014.2 |
| 20260506123757 | 19 | 157 | 12.9 | 16.1 | 0.00 | 0.00 | 0.00 | 59 | 1014.2 |
| 20260506123257 | 19 | 135 | 6.4 | 12.9 | 0.00 | 0.00 | 0.00 | 60 | 1014.2 |
| 20260506122757 | 19 | 135 | 6.4 | 17.7 | 0.00 | 0.00 | 0.00 | 60 | 1014.3 |
| 20260506122257 | 19 | 157 | 6.4 | 12.9 | 0.00 | 0.00 | 0.00 | 59 | 1014.3 |
| 20260506121757 | 20 | 135 | 8.0 | 16.1 | 0.00 | 0.00 | 0.00 | 60 | 1014.3 |
| 20260506121257 | 20 | 157 | 8.0 | 14.5 | 0.00 | 0.00 | 0.00 | 59 | 1014.5 |
| 20260506120757 | 20 | 135 | 8.0 | 17.7 | 0.00 | 0.00 | 0.00 | 59 | 1014.4 |
| 20260506120257 | 20 | 180 | 12.9 | 12.9 | 0.00 | 0.00 | 0.00 | 59 | 1014.4 |
| 20260506115757 | 20 | 157 | 6.4 | 16.1 | 0.00 | 0.00 | 0.00 | 59 | 1014.5 |
| 20260506115257 | 20 | 157 | 6.4 | 14.5 | 0.00 | 0.00 | 0.00 | 58 | 1014.5 |
| 20260506114757 | 20 | 157 | 6.4 | 17.7 | 0.00 | 0.00 | 0.00 | 57 | 1014.5 |
| 20260506114257 | 20 | 180 | 11.3 | 17.7 | 0.00 | 0.00 | 0.00 | 56 | 1014.5 |
| 20260506113757 | 20 | 135 | 11.3 | 14.5 | 0.00 | 0.00 | 0.00 | 56 | 1014.5 |
| 20260506113257 | 20 | 157 | 12.9 | 19.3 | 0.00 | 0.00 | 0.00 | 56 | 1014.5 |
| 20260506112757 | 20 | 157 | 6.4 | 16.1 | 0.00 | 0.00 | 0.00 | 54 | 1014.6 |
| 20260506112257 | 20 | 135 | 9.7 | 16.1 | 0.00 | 0.00 | 0.00 | 56 | 1014.6 |
| 20260506111757 | 21 | 135 | 16.1 | 17.7 | 0.00 | 0.00 | 0.00 | 56 | 1014.7 |
| 20260506111257 | 21 | 157 | 12.9 | 17.7 | 0.00 | 0.00 | 0.00 | 55 | 1014.8 |
| 20260506110757 | 21 | 157 | 9.7 | 14.5 | 0.00 | 0.00 | 0.00 | 58 | 1014.7 |
| 20260506110257 | 20 | 135 | 14.5 | 14.5 | 0.00 | 0.00 | 0.00 | 57 | 1014.8 |
| 20260506105757 | 20 | 157 | 8.0 | 17.7 | 0.00 | 0.00 | 0.00 | 56 | 1014.7 |
| 20260506105257 | 20 | 180 | 9.7 | 16.1 | 0.00 | 0.00 | 0.00 | 56 | 1014.7 |
| 20260506104757 | 20 | 157 | 12.9 | 16.1 | 0.00 | 0.00 | 0.00 | 57 | 1014.8 |
| 20260506104257 | 20 | 135 | 6.4 | 16.1 | 0.00 | 0.00 | 0.00 | 56 | 1014.7 |
| 20260506103757 | 20 | 157 | 14.5 | 17.7 | 0.00 | 0.00 | 0.00 | 57 | 1014.8 |
| 20260506103257 | 20 | 157 | 9.7 | 12.9 | 0.00 | 0.00 | 0.00 | 57 | 1014.8 |
| 20260506102757 | 20 | 135 | 8.0 | 16.1 | 0.00 | 0.00 | 0.00 | 57 | 1014.7 |
| 20260506102257 | 20 | 135 | 9.7 | 14.5 | 0.00 | 0.00 | 0.00 | 57 | 1014.7 |
| 20260506101757 | 20 | 157 | 3.2 | 14.5 | 0.00 | 0.00 | 0.00 | 59 | 1014.7 |
| 20260506101257 | 20 | 180 | 6.4 | 17.7 | 0.00 | 0.00 | 0.00 | 59 | 1014.7 |
| 20260506100757 | 20 | 157 | 11.3 | 17.7 | 0.00 | 0.00 | 0.00 | 59 | 1014.7 |
| 20260506100257 | 20 | 135 | 8.0 | 16.1 | 0.00 | 0.00 | 0.00 | 60 | 1014.6 |
| 20260506095757 | 20 | 157 | 9.7 | 16.1 | 0.00 | 0.00 | 0.00 | 60 | 1014.6 |
| 20260506095257 | 20 | 157 | 12.9 | 16.1 | 0.00 | 0.00 | 0.00 | 59 | 1014.5 |
| 20260506094757 | 20 | 180 | 11.3 | 14.5 | 0.00 | 0.00 | 0.00 | 60 | 1014.6 |
| 20260506094257 | 20 | 180 | 11.3 | 16.1 | 0.00 | 0.00 | 0.00 | 59 | 1014.7 |
| 20260506093757 | 20 | 157 | 3.2 | 16.1 | 0.00 | 0.00 | 0.00 | 60 | 1014.6 |
| 20260506093257 | 20 | 135 | 8.0 | 14.5 | 0.00 | 0.00 | 0.00 | 60 | 1014.7 |
| 20260506092757 | 20 | 135 | 8.0 | 19.3 | 0.00 | 0.00 | 0.00 | 59 | 1014.7 |
| 20260506092257 | 20 | 135 | 11.3 | 14.5 | 0.00 | 0.00 | 0.00 | 58 | 1014.7 |
| 20260506091757 | 20 | 157 | 9.7 | 16.1 | 0.00 | 0.00 | 0.00 | 59 | 1014.6 |
| 20260506091257 | 20 | 157 | 6.4 | 14.5 | 0.00 | 0.00 | 0.00 | 60 | 1014.6 |
| 20260506090757 | 20 | 157 | 8.0 | 14.5 | 0.00 | 0.00 | 0.00 | 59 | 1014.6 |
| 20260506090257 | 20 | 157 | 11.3 | 16.1 | 0.00 | 0.00 | 0.00 | 60 | 1014.6 |
| 20260506085757 | 20 | 157 | 8.0 | 14.5 | 0.00 | 0.00 | 0.00 | 60 | 1014.5 |
| 20260506085257 | 20 | 135 | 8.0 | 12.9 | 0.00 | 0.00 | 0.00 | 59 | 1014.5 |
| 20260506084757 | 20 | 157 | 6.4 | 17.7 | 0.00 | 0.00 | 0.00 | 59 | 1014.5 |
| 20260506084257 | 21 | 180 | 8.0 | 12.9 | 0.00 | 0.00 | 0.00 | 59 | 1014.4 |
| 20260506083757 | 21 | 112 | 4.8 | 16.1 | 0.00 | 0.00 | 0.00 | 58 | 1014.4 |
| 20260506083257 | 21 | 180 | 6.4 | 11.3 | 0.00 | 0.00 | 0.00 | 59 | 1014.4 |
| 20260506082757 | 21 | 180 | 6.4 | 14.5 | 0.00 | 0.00 | 0.00 | 58 | 1014.4 |
| 20260506082257 | 21 | 157 | 4.8 | 14.5 | 0.00 | 0.00 | 0.00 | 59 | 1014.2 |
| 20260506081757 | 21 | 157 | 4.8 | 12.9 | 0.00 | 0.00 | 0.00 | 58 | 1014.3 |
| 20260506081257 | 21 | 157 | 8.0 | 16.1 | 0.00 | 0.00 | 0.00 | 56 | 1014.3 |
| 20260506080757 | 21 | 157 | 6.4 | 14.5 | 0.00 | 0.00 | 0.00 | 56 | 1014.3 |
| 20260506080257 | 21 | 157 | 4.8 | 9.7 | 0.00 | 0.00 | 0.00 | 57 | 1014.2 |
| 20260506073257 | 20 | 135 | 6.4 | 9.7 | 0.00 | 0.00 | 0.00 | 54 | 1014.1 |
| 20260506072757 | 21 | 112 | 8.0 | 14.5 | 0.00 | 0.00 | 0.00 | 54 | 1014.1 |
| 20260506072257 | 21 | 157 | 6.4 | 11.3 | 0.00 | 0.00 | 0.00 | 54 | 1014.1 |
| 20260506071757 | 21 | 112 | 6.4 | 9.7 | 0.00 | 0.00 | 0.00 | 53 | 1014.0 |
| 20260506071257 | 21 | 157 | 9.7 | 9.7 | 0.00 | 0.00 | 0.00 | 53 | 1014.0 |
| 20260506070757 | 21 | 157 | 3.2 | 9.7 | 0.00 | 0.00 | 0.00 | 52 | 1013.9 |
| 20260506070257 | 21 | 157 | 6.4 | 9.7 | 0.00 | 0.00 | 0.00 | 50 | 1013.8 |
| 20260506062257 | 25 | 157 | 1.6 | 4.8 | 0.00 | 0.00 | 0.00 | 37 | 1013.5 |
| 20260506061757 | 25 | 157 | 1.6 | 4.8 | 0.00 | 0.00 | 0.00 | 39 | 1013.5 |
| 20260506061257 | 25 | 135 | 0.0 | 3.2 | 0.00 | 0.00 | 0.00 | 38 | 1013.3 |
| 20260506060757 | 25 | 157 | 3.2 | 3.2 | 0.00 | 0.00 | 0.00 | 39 | 1013.4 |
| 20260506060257 | 25 | 180 | 1.6 | 3.2 | 0.00 | 0.00 | 0.00 | 40 | 1013.3 |
| 20260506051257 | 20 | 292 | 0.0 | 1.6 | 0.00 | 0.00 | 0.00 | 49 | 1013.1 |
| 20260506050757 | 21 | 247 | 0.0 | 1.6 | 0.00 | 0.00 | 0.00 | 48 | 1013.2 |
| 20260506050257 | 21 | 270 | 0.0 | 1.6 | 0.00 | 0.00 | 0.00 | 48 | 1013.1 |
| 20260506044757 | 18 | 22 | 0.0 | 0.0 | 0.00 | 0.00 | 0.00 | 55 | 1013.0 |
| 20260506044257 | 17 | 0 | 0.0 | 0.0 | 0.00 | 0.00 | 0.00 | 58 | 1012.9 |
| 20260506043757 | 16 | 0 | 0.0 | 0.0 | 0.00 | 0.00 | 0.00 | 61 | 1013.0 |
| 20260506043257 | 15 | 0 | 0.0 | 1.6 | 0.00 | 0.00 | 0.00 | 64 | 1012.9 |
| 20260506042757 | 15 | 22 | 0.0 | 1.6 | 0.00 | 0.00 | 0.00 | 65 | 1013.0 |
| 20260506042257 | 14 | 22 | 0.0 | 3.2 | 0.00 | 0.00 | 0.00 | 67 | 1012.9 |
| 20260506041757 | 13 | 22 | 0.0 | 3.2 | 0.00 | 0.00 | 0.00 | 68 | 1012.9 |
| 20260506041257 | 13 | 22 | 3.2 | 3.2 | 0.00 | 0.00 | 0.00 | 68 | 1012.8 |
| 20260506040757 | 13 | 22 | 0.0 | 1.6 | 0.00 | 0.00 | 0.00 | 69 | 1012.7 |
| 20260506040257 | 12 | 22 | 0.0 | 1.6 | 0.00 | 0.00 | 0.00 | 69 | 1012.7 |
| 20260506035757 | 12 | 22 | 0.0 | 0.0 | 0.00 | 0.00 | 0.00 | 70 | 1012.5 |
| 20260506035257 | 11 | 45 | 0.0 | 0.0 | 0.00 | 0.00 | 0.00 | 73 | 1012.5 |
| 20260506034757 | 10 | 45 | 0.0 | 0.0 | 0.00 | 0.00 | 0.00 | 74 | 1012.4 |
| 20260506034257 | 9 | 45 | 0.0 | 0.0 | 0.00 | 0.00 | 0.00 | 78 | 1012.4 |
| 20260506033757 | 8 | 22 | 0.0 | 0.0 | 0.00 | 0.00 | 0.00 | 81 | 1012.4 |
| 20260506033257 | 6 | 0 | 0.0 | 0.0 | 0.00 | 0.00 | 0.00 | 84 | 1012.4 |
| 20260506032757 | 5 | 0 | 0.0 | 0.0 | 0.00 | 0.00 | 0.00 | 84 | 1012.4 |
| 20260506032257 | 5 | 0 | 0.0 | 0.0 | 0.00 | 0.00 | 0.00 | 84 | 1012.4 |
| 20260506031757 | 4 | 0 | 0.0 | 0.0 | 0.00 | 0.00 | 0.00 | 84 | 1012.4 |
| 20260506031257 | 4 | 0 | 0.0 | 0.0 | 0.00 | 0.00 | 0.00 | 84 | 1012.3 |
| 20260506030757 | 4 | 0 | 0.0 | 0.0 | 0.00 | 0.00 | 0.00 | 85 | 1012.4 |
| 20260506030258 | 4 | 337 | 0.0 | 1.6 | 0.00 | 0.00 | 0.00 | 85 | 1012.3 |
| 20260506025757 | 3 | 0 | 0.0 | 3.2 | 0.00 | 0.00 | 0.00 | 85 | 1012.3 |
| 20260506025258 | 3 | 337 | 1.6 | 1.6 | 0.00 | 0.00 | 0.00 | 86 | 1012.3 |
| 20260506024758 | 3 | 337 | 0.0 | 1.6 | 0.00 | 0.00 | 0.00 | 86 | 1012.2 |
| 20260506024257 | 3 | 337 | 0.0 | 1.6 | 0.00 | 0.00 | 0.00 | 86 | 1012.1 |
| 20260506023758 | 3 | 0 | 1.6 | 1.6 | 0.00 | 0.00 | 0.00 | 86 | 1012.2 |
| 20260506023258 | 3 | 0 | 1.6 | 3.2 | 0.00 | 0.00 | 0.00 | 86 | 1012.2 |
| 20260506022758 | 3 | 0 | 0.0 | 0.0 | 0.00 | 0.00 | 0.00 | 86 | 1012.2 |
| 20260506022258 | 3 | 22 | 0.0 | 1.6 | 0.00 | 0.00 | 0.00 | 86 | 1012.2 |
| 20260506021758 | 3 | 0 | 0.0 | 1.6 | 0.00 | 0.00 | 0.00 | 86 | 1012.1 |
| 20260506021258 | 3 | 0 | 0.0 | 3.2 | 0.00 | 0.00 | 0.00 | 86 | 1012.2 |
| 20260506020758 | 3 | 0 | 0.0 | 0.0 | 0.00 | 0.00 | 0.00 | 86 | 1012.2 |
| 20260506020258 | 3 | 0 | 0.0 | 0.0 | 0.00 | 0.00 | 0.00 | 86 | 1012.1 |
| 20260506015758 | 3 | 337 | 0.0 | 1.6 | 0.00 | 0.00 | 0.00 | 87 | 1012.2 |
| 20260506015258 | 3 | 337 | 0.0 | 0.0 | 0.00 | 0.00 | 0.00 | 87 | 1012.2 |
| 20260506014758 | 2 | 0 | 0.0 | 0.0 | 0.00 | 0.00 | 0.00 | 87 | 1012.1 |
| 20260506014258 | 2 | 22 | 0.0 | 0.0 | 0.00 | 0.00 | 0.00 | 87 | 1012.0 |
| 20260506013758 | 2 | 45 | 0.0 | 1.6 | 0.00 | 0.00 | 0.00 | 86 | 1012.1 |
| 20260506013258 | 2 | 22 | 0.0 | 0.0 | 0.00 | 0.00 | 0.00 | 86 | 1012.1 |
| 20260506012758 | 2 | 22 | 0.0 | 0.0 | 0.00 | 0.00 | 0.00 | 86 | 1012.1 |
| 20260506012258 | 2 | 337 | 0.0 | 0.0 | 0.00 | 0.00 | 0.00 | 86 | 1012.2 |
| 20260506011758 | 2 | 337 | 0.0 | 0.0 | 0.00 | 0.00 | 0.00 | 86 | 1012.1 |
| 20260506011258 | 2 | 337 | 0.0 | 0.0 | 0.00 | 0.00 | 0.00 | 86 | 1012.1 |
| 20260506010758 | 2 | 22 | 0.0 | 0.0 | 0.00 | 0.00 | 0.00 | 86 | 1012.2 |
| 20260506010258 | 2 | 22 | 0.0 | 0.0 | 0.00 | 0.00 | 0.00 | 86 | 1012.2 |
| 20260506005758 | 2 | 22 | 0.0 | 0.0 | 0.00 | 0.00 | 0.00 | 86 | 1012.2 |
| 20260506005258 | 2 | 22 | 0.0 | 0.0 | 0.00 | 0.00 | 0.00 | 86 | 1012.2 |
| 20260506004758 | 2 | 22 | 0.0 | 0.0 | 0.00 | 0.00 | 0.00 | 85 | 1012.2 |
| 20260506004258 | 2 | 22 | 0.0 | 0.0 | 0.00 | 0.00 | 0.00 | 85 | 1012.1 |
| 20260506003758 | 2 | 22 | 0.0 | 0.0 | 0.00 | 0.00 | 0.00 | 86 | 1012.2 |
| 20260506003258 | 2 | 22 | 0.0 | 0.0 | 0.00 | 0.00 | 0.00 | 86 | 1012.1 |
| 20260506002758 | 2 | 22 | 0.0 | 0.0 | 0.00 | 0.00 | 0.00 | 86 | 1012.1 |
| 20260506002258 | 2 | 22 | 0.0 | 3.2 | 0.00 | 0.00 | 0.00 | 86 | 1012.2 |
| 20260506001758 | 2 | 22 | 1.6 | 1.6 | 0.00 | 0.00 | 0.00 | 86 | 1012.1 |
| 20260506001258 | 3 | 45 | 0.0 | 0.0 | 0.00 | 0.00 | 0.00 | 86 | 1012.2 |
| 20260506000758 | 3 | 337 | 0.0 | 0.0 | 0.00 | 0.00 | 0.00 | 85 | 1012.1 |
| 20260506000258 | 3 | 337 | 0.0 | 0.0 | 0.00 | 0.00 | 0.00 | 85 | 1012.2 |
| 20260505235758 | 3 | 337 | 0.0 | 1.6 | 0.00 | 0.00 | 0.00 | 85 | 1012.2 |
| 20260505235258 | 3 | 337 | 0.0 | 0.0 | 0.00 | 0.00 | 0.00 | 85 | 1012.2 |
| 20260505234758 | 3 | 337 | 0.0 | 0.0 | 0.00 | 0.00 | 0.00 | 85 | 1012.3 |
| 20260505234258 | 3 | 337 | 0.0 | 0.0 | 0.00 | 0.00 | 0.00 | 85 | 1012.3 |
| 20260505233758 | 3 | 337 | 0.0 | 0.0 | 0.00 | 0.00 | 0.00 | 85 | 1012.3 |
| 20260505233258 | 4 | 337 | 0.0 | 1.6 | 0.00 | 0.00 | 0.00 | 85 | 1012.4 |
| 20260505232758 | 4 | 0 | 0.0 | 0.0 | 0.00 | 0.00 | 0.00 | 85 | 1012.4 |
| 20260505232258 | 4 | 337 | 0.0 | 0.0 | 0.00 | 0.00 | 0.00 | 84 | 1012.4 |
| 20260505231758 | 4 | 22 | 0.0 | 0.0 | 0.00 | 0.00 | 0.00 | 84 | 1012.5 |
| 20260505231258 | 4 | 22 | 0.0 | 0.0 | 0.00 | 0.00 | 0.00 | 84 | 1012.5 |
| 20260505230758 | 4 | 22 | 0.0 | 0.0 | 0.00 | 0.00 | 0.00 | 84 | 1012.5 |
| 20260505230258 | 5 | 0 | 0.0 | 0.0 | 0.00 | 0.00 | 0.00 | 83 | 1012.6 |
| 20260505225758 | 5 | 0 | 0.0 | 0.0 | 0.00 | 0.00 | 0.00 | 83 | 1012.6 |
| 20260505225258 | 5 | 0 | 0.0 | 0.0 | 0.00 | 0.00 | 0.00 | 83 | 1012.6 |
| 20260505224758 | 5 | 0 | 0.0 | 0.0 | 0.00 | 0.00 | 0.00 | 83 | 1012.7 |
| 20260505224258 | 5 | 22 | 0.0 | 0.0 | 0.00 | 0.00 | 0.00 | 84 | 1012.6 |
| 20260505223758 | 5 | 270 | 0.0 | 0.0 | 0.00 | 0.00 | 0.00 | 84 | 1012.7 |
| 20260505223258 | 5 | 292 | 0.0 | 0.0 | 0.00 | 0.00 | 0.00 | 84 | 1012.7 |
| 20260505222758 | 5 | 225 | 0.0 | 0.0 | 0.00 | 0.00 | 0.00 | 83 | 1012.8 |
| 20260505222258 | 5 | 225 | 0.0 | 0.0 | 0.00 | 0.00 | 0.00 | 83 | 1012.8 |
| 20260505221758 | 5 | 225 | 0.0 | 0.0 | 0.00 | 0.00 | 0.00 | 83 | 1012.8 |
| 20260505221258 | 6 | 225 | 0.0 | 0.0 | 0.00 | 0.00 | 0.00 | 83 | 1012.8 |
| 20260505220758 | 6 | 225 | 0.0 | 0.0 | 0.00 | 0.00 | 0.00 | 3 | 1012.9 |
| 20260505220258 | 6 | 225 | 0.0 | 0.0 | 0.00 | 0.00 | 0.00 | 83 | 1012.9 |
| 20260505215758 | 6 | 225 | 0.0 | 0.0 | 0.00 | 0.00 | 0.00 | 83 | 1012.9 |
| 20260505215258 | 6 | 225 | 0.0 | 0.0 | 0.00 | 0.00 | 0.00 | 83 | 1013.0 |
| 20260505214758 | 7 | 247 | 0.0 | 1.6 | 0.00 | 0.00 | 0.00 | 83 | 1013.0 |
| 20260505214258 | 7 | 247 | 1.6 | 1.6 | 0.00 | 0.00 | 0.00 | 84 | 1013.0 |
| 20260505213758 | 7 | 247 | 0.0 | 3.2 | 0.00 | 0.00 | 0.00 | 84 | 1013.0 |
| 20260505213258 | 7 | 225 | 1.6 | 4.8 | 0.00 | 0.00 | 0.00 | 85 | 1013.1 |
| 20260505212758 | 7 | 225 | 3.2 | 4.8 | 0.00 | 0.00 | 0.00 | 86 | 1013.1 |
| 20260505212258 | 6 | 202 | 3.2 | 8.0 | 0.00 | 0.00 | 0.00 | 87 | 1013.2 |
| 20260505211758 | 6 | 225 | 3.2 | 6.4 | 0.00 | 0.00 | 0.00 | 87 | 1013.2 |
| 20260505211258 | 6 | 225 | 3.2 | 4.8 | 0.00 | 0.00 | 0.00 | 87 | 1013.3 |
| 20260505210758 | 5 | 202 | 3.2 | 3.2 | 0.00 | 0.00 | 0.00 | 86 | 1013.4 |
| 20260505210258 | 5 | 225 | 3.2 | 3.2 | 0.00 | 0.00 | 0.00 | 84 | 1013.4 |
| 20260505205758 | 5 | 225 | 0.0 | 0.0 | 0.00 | 0.00 | 0.00 | 83 | 1013.5 |
| 20260505205258 | 5 | 270 | 0.0 | 0.0 | 0.00 | 0.00 | 0.00 | 83 | 1013.5 |
| 20260505204758 | 6 | 270 | 0.0 | 0.0 | 0.00 | 0.00 | 0.00 | 83 | 1013.5 |
| 20260505204258 | 6 | 270 | 0.0 | 0.0 | 0.00 | 0.00 | 0.00 | 83 | 1013.5 |
| 20260505203758 | 6 | 270 | 0.0 | 0.0 | 0.00 | 0.00 | 0.00 | 83 | 1013.5 |
| 20260505203258 | 6 | 270 | 0.0 | 0.0 | 0.00 | 0.00 | 0.00 | 83 | 1013.5 |
| 20260505202758 | 6 | 270 | 0.0 | 0.0 | 0.00 | 0.00 | 0.00 | 83 | 1013.4 |
| 20260505202258 | 6 | 270 | 0.0 | 0.0 | 0.00 | 0.00 | 0.00 | 82 | 1013.4 |
| 20260505201758 | 6 | 247 | 0.0 | 0.0 | 0.00 | 0.00 | 0.00 | 82 | 1013.5 |
| 20260505201258 | 6 | 270 | 0.0 | 0.0 | 0.00 | 0.00 | 0.00 | 82 | 1013.5 |
| 20260505200758 | 6 | 247 | 0.0 | 0.0 | 0.00 | 0.00 | 0.00 | 81 | 1013.5 |
| 20260505200258 | 7 | 247 | 0.0 | 0.0 | 0.00 | 0.00 | 0.00 | 81 | 1013.6 |
| 20260505195758 | 7 | 247 | 0.0 | 0.0 | 0.00 | 0.00 | 0.00 | 81 | 1013.6 |
| 20260505195258 | 7 | 225 | 0.0 | 0.0 | 0.00 | 0.00 | 0.00 | 80 | 1013.6 |
| 20260505194758 | 7 | 225 | 0.0 | 0.0 | 0.00 | 0.00 | 0.00 | 80 | 1013.6 |
| 20260505194258 | 7 | 225 | 0.0 | 1.6 | 0.00 | 0.00 | 0.00 | 80 | 1013.6 |
| 20260505193758 | 8 | 225 | 0.0 | 1.6 | 0.00 | 0.00 | 0.00 | 80 | 1013.5 |
| 20260505193258 | 8 | 225 | 0.0 | 0.0 | 0.00 | 0.00 | 0.00 | 79 | 1013.5 |
| 20260505192758 | 8 | 225 | 0.0 | 1.6 | 0.00 | 0.00 | 0.00 | 79 | 1013.5 |
| 20260505192258 | 8 | 202 | 0.0 | 1.6 | 0.00 | 0.00 | 0.00 | 79 | 1013.5 |
| 20260505191758 | 9 | 247 | 1.6 | 1.6 | 0.00 | 0.00 | 0.00 | 78 | 1013.5 |
| 20260505191258 | 9 | 247 | 0.0 | 1.6 | 0.00 | 0.00 | 0.00 | 79 | 1013.5 |
| 20260505190758 | 10 | 247 | 0.0 | 1.6 | 0.00 | 0.00 | 0.00 | 79 | 1013.5 |
| 20260505190258 | 10 | 225 | 1.6 | 8.0 | 0.00 | 0.00 | 0.00 | 80 | 1013.5 |
| 20260505185758 | 10 | 202 | 3.2 | 4.8 | 0.00 | 0.00 | 0.00 | 82 | 1013.4 |
| 20260505185259 | 10 | 180 | 0.0 | 8.0 | 0.00 | 0.00 | 0.00 | 82 | 1013.5 |
| 20260505184758 | 10 | 180 | 1.6 | 8.0 | 0.00 | 0.00 | 0.00 | 81 | 1013.5 |
| 20260505184258 | 10 | 202 | 3.2 | 8.0 | 0.00 | 0.00 | 0.00 | 82 | 1013.4 |
| 20260505183758 | 10 | 202 | 8.0 | 8.0 | 0.00 | 0.00 | 0.00 | 82 | 1013.4 |
| 20260505183258 | 10 | 180 | 1.6 | 8.0 | 0.00 | 0.00 | 0.00 | 81 | 1013.5 |
| 20260505182758 | 10 | 180 | 1.6 | 4.8 | 0.00 | 0.00 | 0.00 | 81 | 1013.6 |
| 20260505182258 | 10 | 202 | 3.2 | 4.8 | 0.00 | 0.00 | 0.00 | 81 | 1013.5 |
| 20260505181758 | 10 | 180 | 3.2 | 4.8 | 0.00 | 0.00 | 0.00 | 81 | 1013.4 |
| 20260505181258 | 10 | 180 | 1.6 | 3.2 | 0.00 | 0.00 | 0.00 | 81 | 1013.3 |